Regional Weather Roundup
Issued by NWS

Home | Current Version | Previous Version | Text Only | Print | Product List | Glossary Off
Versions: 1 2 3 4 5 6 7 8 9 10 11 12 13 14 15 16 17 18 19 20 21 22 23 24 25 26 27 28 29 30 31 32 33 34 35 36 37 38 39 40 41 42 43 44 45 46 47 48 49 50

000
ASUS43 KOAX 020310
RWRNE

WEATHER ROUNDUP FOR NEBRASKA
NATIONAL WEATHER SERVICE OMAHA NE
900 PM CST SUN MAR 01 2015

NOTES: SATELLITE DATA IS BEING USED TO AUGMENT CLOUD COVER ABOVE
       12000 FEET.
       "FAIR" INDICATES FEW OR NO CLOUDS BELOW 12,000 FEET WITH NO
       SIGNIFICANT WEATHER AND/OR OBSTRUCTIONS TO VISIBILITY.

  * THESE STATIONS DO NOT REPORT WEATHER SUCH AS RAIN...SNOW OR FOG.

NEZ001>004-019>022-054>056-020400-
NEBRASKA PANHANDLE

CITY           SKY/WX    TMP DP  RH WIND       PRES   REMARKS
SCOTTSBLUFF    PTCLDY    23  11  60 E6        30.27R WCI  16
ALLIANCE       MOCLDY    20  12  71 SE5       30.27R WCI  13
CHADRON        CLEAR     21   9  59 NE5       30.30R WCI  15
KIMBALL        CLOUDY    26  19  76 SW8       30.23S WCI  18
SIDNEY         CLOUDY    26  17  68 S6        30.28R WCI  19
$$

NEZ057>060-069>072-079>082-020400-
SOUTHWEST NEBRASKA

CITY           SKY/WX    TMP DP  RH WIND       PRES   REMARKS
NORTH PLATTE   PTCLDY    22  11  62 CALM      30.34R
IMPERIAL         N/A     27  13  55 S3        30.34R
LEXINGTON      PTCLDY    25  11  55 CALM      30.36R
MCCOOK         MOCLDY    33  11  39 S3        30.36R
OGALLALA       MOCLDY    22  15  73 CALM      30.33R
$$

NEZ005>010-023>029-035>040-094-020400-
NORTH CENTRAL NEBRASKA

CITY           SKY/WX    TMP DP  RH WIND       PRES   REMARKS
VALENTINE      CLEAR     23   8  52 NE3       30.36R
AINSWORTH      CLEAR     21   8  57 N3        30.36R
BROKEN BOW     CLEAR     21   8  57 N3        30.36R
O`NEILL        PTCLDY    24   8  50 N3        30.39R
ORD            CLEAR     23   7  50 N5        30.38R WCI  17
THEDFORD       CLEAR     23   8  54 CALM      30.35R
$$

NEZ041-046>049-061>064-073>077-083>087-020400-
SOUTH CENTRAL NEBRASKA

CITY           SKY/WX    TMP DP  RH WIND       PRES   REMARKS
GRAND ISLAND   PTCLDY    25  12  58 N3        30.40R
AURORA         PTCLDY    27  12  54 N5        30.39R WCI  21
HASTINGS       PTCLDY    23  10  57 CALM      30.38R
HEBRON         MOCLDY    27  17  66 CALM      30.40S
HOLDREGE       PTCLDY    27   9  48 CALM      30.37R
KEARNEY *      PTCLDY    27   9  46 CALM      30.38R
YORK           PTCLDY    25  14  63 CALM      30.40R
$$

NEZ011>018-030>034-042>045-020400-
NORTHEAST NEBRASKA

CITY           SKY/WX    TMP DP  RH WIND       PRES   REMARKS
NORFOLK        PTCLDY    27   9  46 NW6       30.39R WCI  20
ALBION         FAIR      20   7  58 N3        30.39R
BLAIR          CLEAR     31  13  47 NW5       30.40R WCI  27
COLUMBUS *     CLEAR     23   7  50 NW3       30.41S
FREMONT        CLEAR     27  17  65 CALM      30.41R
TEKAMAH        CLEAR     25  14  63 NW10      30.42R WCI  15
WAYNE          PTCLDY    20   8  59 CALM      30.41S
$$

NEZ050>053-065>068-078-088>093-020400-
SOUTHEAST NEBRASKA

CITY           SKY/WX    TMP DP  RH WIND       PRES   REMARKS
LINCOLN        PTCLDY    22  14  71 CALM      30.43R
OMAHA EPPLEY   PTCLDY    26  18  71 S3        30.42R
BEATRICE       MOCLDY    28  18  67 CALM      30.42R
FALLS CITY     CLOUDY    30  19  63 S5        30.43R WCI  25
NEBRASKA CITY  MOCLDY    31  12  45 SW5       30.41R WCI  27
PLATTSMOUTH    PTCLDY    30  13  49 CALM      30.42R
$$

NEZ044-045-051>053-067-020400-
OMAHA AREA

CITY           SKY/WX    TMP DP  RH WIND       PRES   REMARKS
OMAHA EPPLEY   PTCLDY    26  18  71 S3        30.42R
BLAIR          CLEAR     31  13  47 NW5       30.40R WCI  27
FREMONT        CLEAR     27  17  65 CALM      30.41R
MILLARD        CLEAR     26  17  67 CALM      30.42R
OFFUTT AFB     CLEAR     24  17  75 CALM      30.41R
PLATTSMOUTH    PTCLDY    30  13  49 CALM      30.42R
WAHOO          FAIR      27  12  53 NW5       30.41R WCI  22
$$


USA.gov is the U.S. government's official web portal to all federal, state and local government web resources and services.